Lid_Strength_Index
14 12 13 14 14 15 17 16 18 16 15 13 11 11 10 10 8 8 8 8 8 9 10 10 11 11 11 10 10 10 11 11 12 12 12 12 12 12 12 12 12 12 12 12
17 13 13 15 13 14 14 14 15 14 14 11 10 11 11 10 9 8 9 8 8 9 10 11 12 11 11 11 10 10 11 11 11 11 11 11 11 12 12 12 12 11 11 12
19 14 14 17 14 14 14 13 13 16 13 12 11 11 10 9 8 8 8 8 8 9 10 11 11 11 11 11 11 11 11 12 11 11 11 12 12 12 13 13 13 13 12 11
18 17 21 15 12 11 12 12 12 12 12 11 10 10 10 9 9 8 8 8 8 9 10 10 10 10 11 11 11 11 12 12 11 11 12 13 13 13 14 14 14 13 14 13
18 18 16 14 12 12 13 13 11 12 11 10 10 10 10 9 9 7 8 8 9 9 10 10 11 11 11 11 11 12 12 12 11 12 13 13 14 14 14 14 14 14 14 15
17 19 20 14 11 10 10 15 10 10 11 10 10 13 11 10 10 10 9 9 10 10 10 11 11 11 12 12 12 13 12 12 12 12 13 14 14 14 14 16 17 17 17 17
16 19 15 12 10 9 17 14 10 10 10 9 10 10 9 10 12 11 10 11 11 11 12 11 11 11 11 12 13 12 12 12 12 12 13 13 14 14 15 19 18 19 17 18
15 17 19 9 10 12 10 7 8 8 8 8 9 10 11 11 11 11 11 11 12 12 12 11 10 11 12 13 12 12 12 13 13 13 13 13 14 17 17 17 18 19 18 18
14 15 11 9 9 8 7 8 8 7 8 7 9 10 10 11 10 11 11 11 12 13 13 12 11 11 13 13 12 12 13 13 13 13 13 14 17 17 18 19 19 19 18 19
12 11 10 9 8 8 8 8 8 8 8 7 8 8 10 10 10 11 11 12 12 13 14 14 13 12 12 12 12 12 13 13 13 14 15 16 16 17 19 19 20 19 19 19
12 11 10 10 8 8 8 7 8 8 8 8 8 8 10 10 11 11 11 12 12 13 14 14 14 13 12 12 12 12 13 13 14 15 16 17 18 19 20 20 19 19 19 19
13 10 10 10 8 7 8 9 9 9 9 8 7 7 8 10 10 11 12 12 12 13 14 14 13 12 12 11 12 12 13 15 16 18 19 18 19 18 14 14 13 14 15 17
10 9 9 8 8 8 8 9 9 9 9 10 9 8 9 9 10 10 11 11 12 13 13 13 12 12 12 11 12 12 13 17 17 18 18 18 18 18 18 16 14 14 14 14
8 7 8 8 8 8 8 8 8 10 9 9 9 8 8 9 9 11 12 11 11 12 12 12 12 12 11 11 12 14 16 14 17 19 18 18 18 18 18 18 19 20 15 15
8 8 8 8 8 8 9 8 10 10 10 9 9 9 9 9 10 9 11 11 11 12 12 12 12 12 11 11 12 14 16 17 18 18 18 17 18 18 18 18 19 21 20 17
9 9 9 9 9 9 10 10 11 10 10 10 10 10 10 9 9 10 10 11 11 12 12 12 12 11 11 11 13 16 17 15 16 18 18 18 19 19 19 19 20 21 21 21
11 12 11 12 11 11 11 9 9 9 10 10 10 10 10 10 10 10 9 10 11 11 10 11 11 11 11 12 13 15 17 16 14 18 18 18 19 19 20 20 21 21 21 20
9 9 9 9 10 10 10 9 9 9 9 9 10 10 11 12 11 10 10 9 10 11 11 10 10 10 10 11 12 14 16 16 15 17 18 18 19 19 19 20 20 21 21 20
10 10 10 10 10 10 10 10 10 10 9 10 10 11 12 12 12 11 10 11 11 11 11 11 10 11 11 11 12 13 14 15 15 16 17 16 17 19 19 20 20 20 20 20
11 11 10 10 10 10 10 10 11 11 10 10 10 11 12 11 11 10 10 11 11 10 10 10 11 11 11 11 11 13 15 15 15 15 17 17 18 18 19 18 19 19 19 20
11 11 11 11 11 11 11 12 12 12 12 12 12 12 12 12 12 12 12 12 11 11 12 11 11 11 12 12 12 13 14 15 15 16 17 17 18 18 19 19 19 19 19 19
11 12 12 12 13 13 12 12 14 14 13 13 13 13 13 13 13 13 12 12 12 10 11 15 14 11 12 11 12 13 15 15 15 15 16 17 17 18 18 18 19 19 19 19
12 12 12 13 14 14 13 13 13 13 14 14 14 14 14 14 14 14 14 13 13 12 12 14 12 10 9 11 12 12 14 15 15 15 15 16 16 17 18 18 18 18 18 18
13 14 14 15 14 15 16 15 16 14 14 14 14 14 14 15 14 13 13 13 12 12 12 12 11 10 10 11 12 12 13 14 15 15 15 15 16 16 17 18 17 18 18 17
15 16 17 17 16 16 16 16 15 15 16 16 16 15 15 14 14 14 14 14 13 13 13 12 11 11 12 12 13 13 14 14 14 15 15 16 16 17 17 16 17 17 18 18
16 16 17 16 16 16 17 16 16 16 15 17 16 15 15 15 16 15 15 13 14 13 14 14 13 13 13 14 14 14 14 15 14 14 16 16 16 16 16 16 17 17 17 18
17 15 19 18 17 17 17 16 16 16 16 16 17 15 16 15 15 15 15 16 15 14 14 14 14 14 14 14 14 15 15 15 15 15 16 16 16 15 16 16 16 17 18 18